Tracking 29892 objects as of 21-Nov-2024
HD Live streaming from Space Station
objects crossing your sky now

SL-12 R/B(2)

Track SL-12 R/B(2) now!


NORAD ID: 14951
Int'l Code: 1984-031F
Perigee: 35,966.9 km
Apogee: 36,095.5 km
Inclination: 10.2 °
Period: 1,448.2 minutes
Semi major axis: 42402 km
RCS: 2.1273 m2 (large)
Launch date: March 29, 1984
Source: Commonwealth of Independent States (former USSR) (CIS)
Launch site: TYURATAM MISSILE AND SPACE COMPLEX (TTMTR)

Note: This is a ROCKET BODY
Your satellite tracking list
Your tracking list is empty




NASA's NSSDC Master Catalog

Two Line Element Set (TLE):
1 14951U 84031F   24325.75509365 -.00000286  00000-0  00000-0 0  9999
2 14951  10.1735 316.4930 0015160 239.1138 292.6912  0.99430601114105
Source of the keplerian elements: AFSPC